Location: Chicago
(41.8500°N, 87.6500°W)
Time: 04:23:30
(UTC-06:00)

ISS - Visible Passes

Search period start: 26 January 2015 00:00
Search period end: 05 February 2015 00:00
Orbit: 402 x 410 km, 51.6° (Epoch: 25 January)

Date Brightness Start Highest point End Pass type
(mag) Time Alt. Az. Time Alt. Az. Time Alt. Az.
26 Jan -3.4 05:28:04 67° WSW 05:28:14 69° SW 05:31:31 10° SE visible
27 Jan -0.6 04:38:39 19° ESE 04:38:39 19° ESE 04:39:44 10° ESE visible
27 Jan -1.3 06:11:22 13° WSW 06:12:39 15° SW 06:14:36 10° S visible
28 Jan -1.6 05:22:02 23° S 05:22:02 23° S 05:23:51 10° SSE visible
03 Feb -1.2 18:24:40 10° SSE 18:26:02 14° SE 18:26:02 14° SE visible
04 Feb -1.9 19:07:25 10° SW 19:09:24 33° SSW 19:09:24 33° SSW visible
